Regional Weather Roundup
Issued by NWS

Home | Current Version | Previous Version | Text Only | Print | Product List | Glossary Off
Versions: 1 2 3 4 5 6 7 8 9 10 11 12 13 14 15 16 17 18 19 20 21 22 23 24 25 26 27 28 29 30 31 32 33 34 35 36 37 38 39 40 41 42 43 44 45 46 47 48 49 50

000
ASUS43 KLSX 271059
RWRMO

WEATHER SUMMARY FOR MISSOURI
NATIONAL WEATHER SERVICE SPRINGFIELD MO
600 AM CDT WED MAY 27 2015

NOTE: "FAIR" INDICATES FEW OR NO CLOUDS BELOW 12,000 FEET WITH NO
       SIGNIFICANT WEATHER AND/OR OBSTRUCTIONS TO VISIBILITY.
       CURRENT SKY AND/OR WEATHER CONDITIONS ARE NOT AVAILABLE FOR
       CHILLICOTHE AND FARMINGTON.

MOZ001>031-035>038-043-044-053-054-271200-
...NORTHERN AND WESTERN MISSOURI...

CITY           SKY/WX    TMP DP  RH WIND       PRES   REMARKS
KANSAS CTY INT PTCLDY    56  54  93 SW7       30.03R
KANSAS C DTWN  PTCLDY    63  55  75 SW6       30.03R
LEE`S SUMMIT   PTCLDY    60  56  86 W5        30.04R
ST JOSEPH      CLEAR     59  53  80 W3        30.02R
KIRKSVILLE     CLEAR     61  59  93 W6        30.02R

$$
MOZ066>068-077>081-088>096-101>105-271200-
...SOUTHWEST MISSOURI...

CITY           SKY/WX    TMP DP  RH WIND       PRES   REMARKS
SPRINGFIELD    CLOUDY    64  62  93 S3        30.06R
JOPLIN         MOCLDY    66  64  93 CALM      30.06R

$$
MOZ032>034-039>042-045>050-055>058-069>072-271200-
...CENTRAL MISSOURI...

CITY           SKY/WX    TMP DP  RH WIND       PRES   REMARKS
COLUMBIA       CLOUDY    63  61  93 S3        30.01R
JEFFERSON CITY CLOUDY    67  60  78 W8        30.02R
ROLLA          CLOUDY    62  61  96 S12       30.07R
SEDALIA        PTCLDY    64  61  90 SW5       30.05R

$$
MOZ051-052-059>065-271200-
...EAST CENTRAL MISSOURI...

CITY           SKY/WX    TMP DP  RH WIND       PRES   REMARKS
ST LOUIS INTL  CLOUDY    70  62  76 SW7       30.00S
SPIRIT OF STL  CLOUDY   N/A N/A N/A SW3       30.00R
ST CHARLES     CLOUDY    67  63  87 CALM      29.99S

$$
MOZ072>076-082>087-097>100-106>115-271200-
...SOUTH CENTRAL AND SOUTHEAST MISSOURI...

CITY           SKY/WX    TMP DP  RH WIND       PRES   REMARKS
CAPE GIRARDEAU PTCLDY    63  62  97 SE5       30.04S
FARMINGTON     CLOUDY    64  61  88 W5        30.09R
POPLAR BLUFF   MOCLDY    64  62  93 S3        30.03S FOG
WEST PLAINS    MOCLDY    66  64  93 SW6       30.06R

$$


USA.gov is the U.S. government's official web portal to all federal, state and local government web resources and services.